Theta_e
317 317 317 317 316 316 317 317 317 318 318 318 319 319 319 319 320 320 320 319 319 320 320 319 320 320 320 320 320 321 319 320 319 317 319 325 331 342 348 346 344 350 359 344 332 332 335 337 337 345 339 340 335 333 339 338 339 336 330 326 322 323 320 322 324 325 327 325 327 331 333 330 327 333 334 339 338 336 336 338 339 341 346 346 345 346 347 348
316 316 316 316 316 316 317 317 317 317 318 318 318 319 319 319 319 320 319 319 319 319 319 319 319 320 320 320 320 320 320 319 319 319 319 327 341 347 349 345 348 350 359 333 336 334 334 334 337 343 336 333 338 330 338 335 339 331 328 327 323 324 327 330 329 330 329 326 329 332 331 333 331 334 334 333 331 333 333 337 337 338 343 345 345 346 347 347
316 316 315 316 315 316 316 317 317 317 318 318 318 318 319 319 319 319 319 319 319 319 319 319 319 319 319 320 320 320 320 318 320 318 323 341 339 345 346 346 346 354 346 330 340 336 335 335 338 340 335 331 332 328 336 332 336 333 327 324 324 325 331 331 331 331 331 330 329 329 332 332 332 335 332 333 330 332 331 332 335 337 338 341 343 345 345 345
315 315 315 315 315 316 316 316 317 317 317 317 317 318 318 318 318 318 319 319 319 318 318 318 319 319 319 319 320 321 319 320 314 318 325 357 345 345 345 347 349 354 338 333 341 337 335 337 338 338 332 328 330 331 332 332 331 333 328 324 325 332 327 330 332 332 331 331 329 330 329 330 331 337 332 333 331 330 333 336 335 337 338 340 343 344 345 344
315 315 315 315 315 316 316 316 317 316 316 317 317 318 318 318 318 318 318 318 318 318 318 318 319 319 319 319 318 322 319 308 313 327 338 354 349 346 345 346 351 340 333 334 339 335 333 333 335 334 329 324 329 330 331 333 336 332 330 330 331 333 326 330 334 332 332 330 330 328 328 331 338 336 335 333 329 328 332 336 337 340 341 341 342 341 345 344
315 315 315 315 315 315 316 316 316 316 316 317 317 317 317 317 317 317 317 318 318 318 318 318 318 318 319 319 321 321 316 301 322 328 348 350 347 343 344 347 354 336 332 334 333 330 329 329 332 327 323 324 323 325 329 332 336 322 329 329 330 332 332 335 335 333 330 333 329 327 331 332 330 330 334 334 331 329 337 338 340 343 344 342 344 345 342 343
315 314 314 314 315 315 315 315 315 316 316 316 317 317 317 317 316 317 317 317 317 317 318 318 319 318 318 319 320 317 313 312 318 329 358 350 346 344 346 351 359 338 331 330 329 326 328 328 329 325 322 322 323 325 327 329 333 328 322 329 329 330 330 336 336 335 333 331 330 331 331 327 329 325 332 331 335 337 337 339 341 344 345 345 344 343 341 344
314 314 314 314 315 315 315 315 315 315 316 316 316 316 316 317 317 317 317 317 317 318 318 319 319 319 319 319 318 315 311 310 318 333 355 354 340 340 348 337 337 334 331 327 326 324 325 326 326 327 321 320 322 324 327 325 328 327 324 326 328 332 332 333 335 335 334 333 333 332 328 328 328 328 331 330 335 337 339 340 342 345 344 345 344 343 344 344
314 314 314 314 314 315 315 315 315 315 315 316 316 316 316 316 316 317 317 318 318 319 319 320 319 319 319 319 318 311 310 319 321 335 341 333 329 328 335 333 333 333 333 329 327 324 324 325 329 327 319 321 326 322 327 324 321 327 327 327 325 326 331 333 334 333 333 333 333 328 327 328 329 330 327 331 333 336 340 340 341 343 343 342 344 344 344 345
314 314 314 314 314 315 315 315 316 316 315 316 316 315 315 315 316 317 317 317 318 319 321 321 320 319 318 317 313 306 315 321 320 324 335 328 330 328 330 332 332 333 332 328 325 323 322 326 328 330 327 325 326 322 327 325 323 329 329 327 326 327 329 331 330 332 333 331 331 327 326 327 330 326 322 330 335 337 339 340 343 342 341 343 342 344 345 345
313 314 314 314 314 315 315 315 316 315 316 315 315 315 315 316 316 316 316 317 319 321 323 322 320 319 318 317 310 308 321 320 328 328 321 321 322 329 327 329 331 330 332 328 324 324 325 328 330 330 326 323 326 323 325 326 330 328 328 329 328 327 327 329 330 330 331 328 330 328 325 327 328 326 324 329 333 338 337 340 342 342 342 343 344 344 346 346
313 314 314 314 314 314 315 315 315 315 315 315 315 315 315 315 315 315 317 319 321 323 324 322 321 320 320 315 310 313 321 319 326 327 331 330 323 327 330 328 332 330 330 326 324 325 326 327 329 326 319 325 319 325 325 330 330 328 326 320 323 325 322 326 325 328 330 326 328 328 323 321 323 321 326 331 334 337 335 338 341 341 342 343 344 344 346 346
313 314 314 314 314 314 315 315 315 315 314 314 314 314 315 315 314 315 318 320 322 321 323 322 322 322 319 311 314 321 323 325 327 328 331 332 330 332 332 329 332 332 330 327 325 326 326 327 326 323 326 323 319 317 324 327 326 327 326 322 319 319 318 323 326 326 326 326 327 326 312 316 320 324 327 330 333 335 333 337 337 341 339 343 344 344 346 347
313 313 314 314 314 314 314 315 314 314 314 314 314 313 313 313 314 317 319 321 321 319 322 322 323 321 319 313 319 321 323 324 322 325 331 333 332 331 330 330 333 332 332 329 328 327 326 326 325 323 327 323 318 325 321 321 324 318 322 321 315 313 314 322 323 325 323 327 326 325 314 316 320 324 328 330 333 334 333 335 336 339 341 341 339 343 345 347
313 313 314 314 314 314 314 314 313 313 313 313 313 312 312 312 315 318 321 324 321 321 322 322 324 321 315 316 324 326 347 320 318 320 327 329 328 328 329 333 333 332 331 329 328 329 328 325 323 319 318 326 324 319 317 316 318 319 315 311 315 312 314 320 324 324 319 324 327 323 315 316 320 324 327 330 332 334 333 336 335 337 339 342 341 344 345 345
313 313 314 314 314 314 314 313 312 313 313 312 311 311 313 314 317 320 322 324 322 322 324 321 322 321 317 313 320 334 320 315 314 321 325 329 325 322 328 329 331 331 329 327 329 329 328 326 319 319 320 322 318 314 314 314 313 316 313 312 311 313 314 317 322 324 324 323 324 322 314 318 319 326 328 330 333 333 334 336 336 338 340 341 342 344 342 345
313 313 313 313 314 314 313 312 312 313 312 311 311 312 314 316 318 322 323 323 323 325 325 323 323 321 310 319 325 316 313 316 319 319 321 326 323 323 326 326 325 325 327 327 328 328 326 322 322 321 321 317 315 314 310 309 309 311 315 311 314 313 314 313 320 323 323 322 319 321 317 319 320 324 327 331 330 331 330 334 336 337 340 343 341 341 343 345
313 313 313 313 314 314 313 312 312 312 310 310 310 311 314 317 318 322 323 324 329 326 326 327 325 316 312 319 311 314 321 318 316 317 318 324 323 323 325 324 325 325 325 323 326 322 323 318 321 313 316 314 314 311 306 304 308 309 310 310 311 315 316 314 314 319 321 322 319 319 318 319 321 323 327 331 329 329 328 331 336 336 339 341 338 341 345 345
313 313 313 313 313 313 312 312 311 310 310 310 312 317 317 315 321 326 324 326 322 319 312 316 312 305 307 314 319 317 317 322 321 317 314 320 322 323 325 327 325 323 317 315 316 320 321 317 318 312 308 309 310 312 309 311 313 312 313 312 313 311 313 313 317 321 321 318 318 318 316 318 320 322 325 328 330 328 328 330 335 337 338 340 338 341 343 344
313 313 313 313 312 313 312 312 311 309 308 311 315 318 319 311 310 320 318 318 317 318 319 316 316 315 317 318 318 320 322 322 316 316 317 319 320 318 320 321 320 320 315 309 312 314 319 309 307 307 309 311 313 315 314 313 314 314 315 314 313 313 315 318 318 321 322 318 317 318 318 318 319 321 322 325 328 328 327 328 332 336 337 339 339 340 341 343
313 313 313 313 312 312 312 311 310 309 308 312 315 310 303 303 299 299 304 306 308 309 308 309 310 313 315 319 321 318 314 315 318 318 318 320 319 315 314 317 315 311 311 312 311 314 315 306 307 311 312 314 314 316 316 314 313 312 312 312 311 313 312 317 318 320 321 317 316 319 318 318 319 321 322 324 326 326 326 327 330 333 336 336 340 340 341 341
313 313 313 312 312 311 311 311 309 309 308 315 313 306 308 307 309 311 307 300 307 310 310 310 312 309 313 315 320 321 318 313 313 317 321 317 314 309 312 313 312 308 312 312 313 309 308 306 309 313 315 315 316 316 315 313 311 312 311 311 310 311 314 317 318 320 321 317 315 318 316 317 319 320 322 323 323 326 328 328 329 334 336 336 339 340 339 340
313 313 313 312 312 311 310 309 309 306 314 313 309 306 305 310 314 315 311 305 303 310 310 309 307 308 309 314 316 321 313 311 310 315 317 317 311 310 312 310 310 311 311 311 308 307 305 309 313 315 316 314 314 314 313 312 312 310 310 308 307 312 310 308 315 318 319 317 315 317 315 317 320 323 323 324 323 325 328 329 329 331 337 338 338 341 340 340
313 313 312 312 311 310 310 308 307 312 312 312 311 306 309 312 314 313 308 301 300 306 309 311 312 309 309 309 315 316 313 313 314 313 321 317 310 311 312 311 310 310 308 309 309 308 307 313 316 315 314 314 311 311 311 309 307 310 310 309 309 310 311 312 313 316 318 319 318 317 315 315 318 317 319 323 324 324 326 328 329 330 335 339 342 342 342 341
313 313 313 312 310 310 308 306 309 308 311 313 310 310 311 313 315 315 306 305 306 305 315 312 313 313 313 318 317 311 314 316 316 319 320 318 312 310 310 315 312 308 310 311 310 309 310 315 316 313 312 313 311 309 310 310 306 307 310 310 310 311 312 313 314 314 312 311 316 315 307 309 316 317 317 320 321 321 324 327 328 329 331 337 337 340 340 340
313 313 313 311 311 310 307 309 307 310 311 307 307 310 312 313 314 316 308 299 295 303 313 305 315 309 319 311 314 313 314 309 317 319 321 319 319 312 312 311 313 308 310 310 309 310 311 315 314 311 310 311 310 309 310 311 307 306 307 311 311 311 311 311 311 312 307 306 313 317 307 305 315 315 317 319 320 320 323 324 327 329 330 334 336 337 336 340
312 312 312 311 310 308 306 303 309 312 307 305 310 311 312 312 319 313 304 299 297 308 305 310 309 310 315 313 313 314 300 305 317 319 319 321 314 318 309 309 313 313 314 314 310 306 312 313 313 312 311 309 309 307 310 311 307 305 312 312 311 309 308 309 310 310 309 314 315 316 313 306 307 313 319 320 318 318 321 323 327 327 331 332 338 336 340 342
313 312 311 310 308 308 308 309 311 308 308 309 310 311 312 315 316 314 303 290 291 311 305 306 310 316 314 314 315 309 310 316 309 314 319 321 319 314 311 309 310 309 313 311 302 311 312 310 311 310 310 308 307 310 312 312 309 308 311 311 310 309 309 309 308 308 309 308 305 310 313 308 307 314 320 320 316 317 319 324 328 329 330 333 337 336 337 342
312 311 311 310 308 306 312 312 310 309 312 311 310 311 312 314 310 304 298 291 307 307 316 306 314 313 311 313 310 310 311 315 310 315 318 320 320 316 308 310 312 312 313 312 307 311 313 313 313 313 310 307 310 312 313 313 308 311 312 312 311 311 310 309 307 307 307 306 302 307 310 305 306 312 314 318 316 317 319 324 326 330 332 334 332 339 341 341
311 310 310 309 309 313 312 312 310 311 310 311 312 312 312 310 306 297 291 286 306 300 307 307 307 305 310 306 307 309 308 311 313 316 316 314 315 318 316 317 312 311 310 312 311 312 314 318 317 313 311 313 313 314 314 313 312 314 312 310 309 309 309 310 309 307 305 300 302 307 309 307 302 310 312 312 314 318 321 323 325 329 331 334 335 338 340 343
310 309 309 308 309 310 309 307 309 310 311 313 312 310 308 305 297 293 287 297 305 305 308 306 304 308 306 304 303 309 309 311 310 313 310 314 312 313 314 311 314 310 309 309 308 311 313 314 312 314 317 316 316 313 315 315 314 312 309 307 307 306 308 307 306 308 300 297 305 308 307 308 300 306 313 318 320 320 320 321 325 328 330 332 334 333 338 343
308 307 308 310 313 313 307 305 309 312 313 312 310 306 302 291 298 288 291 305 294 303 304 303 307 308 306 308 306 307 305 309 310 310 309 308 308 307 308 305 307 301 302 304 303 310 308 310 314 314 318 315 313 310 311 312 312 309 308 307 301 300 301 297 301 297 297 297 304 307 307 304 303 309 314 316 318 320 323 322 323 326 330 333 335 334 337 340
307 306 306 311 315 314 311 312 313 313 312 310 307 304 296 291 285 294 293 297 295 302 302 307 304 304 305 304 304 307 310 305 310 308 311 310 308 308 310 310 310 307 301 306 304 304 305 311 312 312 314 316 314 306 306 305 308 307 305 304 300 298 296 293 297 300 300 303 306 306 309 302 307 311 315 315 318 320 322 325 325 326 326 331 334 335 333 338
306 307 312 316 312 311 313 314 312 312 309 309 304 299 295 287 287 300 296 300 299 305 304 303 303 304 304 301 304 307 304 308 308 307 309 308 307 306 307 309 311 308 308 308 303 303 299 300 306 310 307 315 313 311 310 308 308 308 310 307 303 303 299 295 297 295 297 301 305 308 304 302 302 306 315 317 318 321 322 323 326 327 327 330 335 337 334 335
305 309 317 315 313 312 310 310 312 312 309 306 299 294 287 287 293 292 294 298 300 302 299 303 301 301 301 304 306 308 308 304 309 308 306 306 304 306 306 306 310 311 309 304 307 306 303 304 309 314 313 314 311 314 314 311 309 310 310 310 305 303 309 301 303 302 302 301 301 304 302 307 307 316 319 319 318 318 320 323 324 326 326 329 333 333 332 332
308 315 315 311 308 308 309 310 311 311 308 302 295 290 287 291 289 298 297 301 300 296 297 301 301 299 299 301 306 305 309 304 307 307 306 306 308 306 310 310 308 311 308 303 309 303 305 303 311 312 314 313 313 314 312 314 302 308 308 303 306 312 309 306 308 308 308 305 302 309 306 308 313 313 315 317 317 318 318 320 321 324 325 328 331 333 332 332
311 314 309 309 308 309 310 311 310 309 306 299 293 288 293 294 297 297 300 297 297 298 297 292 297 298 298 299 302 304 306 307 306 305 302 307 305 309 309 311 313 311 312 309 307 312 304 304 311 310 307 313 316 315 314 314 314 310 303 306 312 314 312 307 300 305 302 299 302 306 303 305 305 302 315 315 314 315 317 318 319 323 325 324 327 333 333 331
310 311 309 308 308 310 310 311 310 307 303 297 290 292 297 292 298 298 300 299 299 299 294 294 295 300 297 300 301 303 305 302 304 304 302 306 302 311 310 310 313 312 312 314 308 310 311 304 308 311 310 312 315 314 311 313 315 311 308 314 305 300 300 306 304 297 298 297 300 304 306 306 307 307 312 312 312 313 316 318 318 319 321 322 322 327 334 335
312 307 303 306 311 310 310 311 309 305 301 295 292 289 295 296 299 298 300 299 298 296 292 295 293 297 297 296 301 301 303 300 303 303 300 304 301 306 306 307 308 311 313 314 310 311 312 304 307 312 310 312 312 310 302 306 312 314 315 310 312 309 304 302 303 305 305 300 299 300 303 302 310 311 313 314 315 315 315 317 317 318 320 321 323 324 329 333
306 303 300 308 311 311 312 310 305 303 298 291 291 291 295 293 296 298 299 298 295 294 293 293 297 294 296 298 300 298 303 301 301 302 303 305 303 305 305 308 306 309 311 313 311 313 310 312 303 308 312 311 304 308 305 306 304 306 307 307 308 307 311 309 308 304 302 301 301 302 300 305 311 314 313 315 318 317 317 316 318 319 322 323 325 326 329 334
308 302 301 310 310 311 310 306 300 295 293 293 294 293 294 292 295 297 298 300 298 300 296 294 294 293 295 295 294 299 299 300 301 301 303 304 302 300 304 305 306 307 311 311 310 312 309 309 304 307 306 305 306 311 310 310 309 307 306 306 308 304 303 300 299 308 305 302 298 300 301 310 313 317 317 317 318 319 319 319 318 320 319 323 324 328 331 333
302 296 299 310 311 310 305 297 296 298 295 292 291 293 292 298 294 295 296 298 298 296 300 297 297 295 295 294 295 296 297 297 301 301 302 302 302 302 303 307 308 309 308 307 308 312 313 312 308 306 305 306 309 313 314 314 312 311 309 307 310 309 308 304 296 302 305 305 306 306 303 307 316 318 318 318 318 318 320 320 320 320 322 322 323 324 329 334
300 297 307 309 310 307 301 295 297 296 295 295 298 296 297 295 294 297 295 296 294 298 297 295 297 296 298 296 296 296 297 296 299 299 302 304 302 303 305 306 308 310 311 310 311 312 317 308 306 307 311 311 313 314 314 314 312 309 310 311 310 307 308 306 306 309 305 305 302 303 301 307 315 320 319 317 320 317 321 319 320 320 322 322 323 325 329 333
300 299 303 308 310 307 299 290 290 292 294 296 296 294 298 297 296 295 294 295 294 296 294 294 296 298 296 299 296 294 297 292 300 300 300 303 302 305 305 305 307 307 307 307 307 313 305 308 307 303 304 305 307 310 309 312 311 308 307 309 310 311 311 310 311 312 306 306 306 302 298 304 315 319 319 319 317 316 316 318 319 320 323 323 324 327 330 339
300 302 302 303 308 305 295 296 294 292 293 294 293 293 294 295 298 297 296 295 298 296 293 294 298 298 296 298 296 298 299 296 294 301 301 300 301 305 305 305 306 305 307 309 311 310 306 307 305 301 298 296 296 297 299 302 305 308 310 310 310 309 309 308 304 307 300 310 310 305 304 311 315 319 318 317 317 318 318 318 318 321 324 324 326 331 339 341
297 292 297 299 302 303 300 301 299 295 294 295 292 294 294 293 296 298 298 296 297 296 296 297 299 298 295 297 294 295 296 299 296 295 297 299 301 304 304 304 305 305 308 312 311 310 306 309 308 306 305 303 305 313 311 311 308 305 307 309 309 310 311 310 309 305 302 307 307 310 311 311 313 313 315 315 317 317 317 319 318 320 323 328 334 333 333 340
300 294 293 292 297 300 296 298 297 297 294 296 291 294 292 294 294 294 299 293 297 296 295 297 296 293 294 294 294 294 296 296 298 296 296 296 299 300 305 304 305 306 308 309 309 309 308 304 307 309 308 311 309 310 309 311 308 308 307 307 310 309 309 308 305 304 313 306 300 310 314 310 311 314 315 316 317 319 318 320 320 323 324 328 329 335 342 338
293 296 298 299 292 290 291 293 296 296 297 296 293 295 293 293 293 291 296 297 297 299 292 293 294 295 295 292 293 291 294 293 295 293 296 297 297 301 302 304 304 306 307 306 309 307 305 303 308 309 308 309 312 307 309 309 310 309 309 308 308 309 308 306 308 309 311 306 304 311 315 312 313 314 315 317 319 320 318 320 322 325 323 326 330 327 326 331
300 299 298 301 293 295 295 295 296 296 295 296 293 293 292 292 291 294 293 294 295 293 294 288 291 294 295 295 293 290 294 290 290 293 294 293 295 297 299 302 304 306 305 304 306 309 306 304 307 308 307 309 309 308 310 307 308 308 309 309 310 309 309 308 308 310 310 311 311 314 315 311 314 315 316 318 320 319 320 322 323 323 320 325 324 324 322 326
295 294 293 299 298 295 296 296 296 295 293 295 290 293 293 292 292 294 295 294 290 291 296 290 291 294 295 294 294 290 292 292 291 289 294 294 294 297 294 296 295 302 304 302 304 308 304 303 305 306 305 306 308 308 308 308 307 307 309 309 309 309 310 310 309 310 311 310 311 311 314 313 316 319 319 321 322 320 321 319 319 322 322 321 322 321 323 324
301 303 301 295 292 295 296 296 294 294 292 294 292 293 293 294 293 295 294 297 294 291 294 293 294 294 295 293 292 292 295 294 294 294 296 295 292 297 293 294 298 297 302 302 304 304 304 302 304 304 301 301 305 305 306 307 306 306 307 308 308 308 307 308 308 310 309 308 310 310 309 310 317 320 320 321 321 321 320 320 320 321 321 322 322 321 323 325
303 306 306 298 290 296 293 295 295 294 290 294 293 293 293 294 296 296 292 295 297 298 296 295 296 294 293 293 292 294 296 297 296 297 298 299 300 299 300 299 299 298 299 300 304 300 303 301 300 301 298 300 304 306 305 305 305 302 303 307 309 309 310 310 311 312 312 312 309 307 309 315 318 320 318 319 318 319 320 320 322 323 325 322 323 323 323 324
Wind_Speed
22 21 22 22 22 22 22 22 20 21 22 23 23 23 23 23 22 23 22 22 21 20 19 19 18 18 16 16 15 14 14 14 13 13 15 23 12 8 11 5 12 12 12 13 14 15 16 16 17 15 11 10 10 10 7 10 7 1 5 7 3 8 8 10 9 8 6 7 8 6 5 9 9 6 8 6 7 10 7 8 7 8 6 10 19 21 23 22
22 22 22 22 22 23 22 21 21 22 22 23 24 24 25 24 25 25 23 21 21 20 19 18 18 17 17 16 15 13 13 13 16 16 22 19 12 9 13 11 14 17 14 15 16 17 16 17 17 16 13 10 9 10 9 8 8 6 6 8 1 6 11 17 2 7 3 8 8 5 3 1 10 5 6 5 7 9 8 9 10 10 12 16 19 23 23 22
22 23 23 23 23 22 22 22 22 23 23 24 24 25 24 25 25 24 24 23 22 20 19 18 18 17 16 16 14 12 13 15 16 20 24 24 19 17 16 15 19 17 18 16 16 16 16 15 15 15 12 10 10 10 10 8 8 10 10 2 4 2 17 3 2 5 5 2 7 4 8 5 7 5 3 4 8 7 7 9 10 11 13 16 20 22 23 22
23 24 24 24 23 22 22 23 23 23 23 24 25 24 25 25 26 25 23 22 21 21 19 19 17 16 16 15 12 13 11 15 15 17 2 4 20 20 17 17 20 19 20 17 15 15 14 14 15 16 12 12 10 12 10 8 7 7 10 8 4 15 13 6 2 4 5 4 4 5 8 4 6 8 5 7 8 5 6 9 9 12 15 18 20 20 22 21
23 23 23 23 22 23 23 23 23 24 24 25 24 25 25 26 27 26 24 23 22 20 18 18 17 16 15 12 12 11 11 9 2 13 9 8 13 16 15 18 20 21 20 16 15 15 14 15 15 15 13 11 11 11 11 11 11 7 9 8 9 12 6 2 2 4 5 2 2 4 5 7 7 6 6 5 4 5 6 10 10 14 17 20 20 22 21 23
23 23 22 23 23 23 24 24 24 25 25 25 26 26 25 27 24 24 23 22 21 19 18 18 16 15 14 11 11 10 7 5 7 8 8 8 14 15 16 19 21 21 19 17 15 15 16 15 15 14 13 12 14 12 11 13 11 10 9 7 8 10 10 6 2 3 1 2 2 2 6 5 6 5 5 4 4 6 6 11 11 15 18 19 20 20 21 22
23 23 23 23 23 23 24 25 24 25 25 26 27 25 26 25 24 23 22 22 21 20 19 17 15 13 13 11 11 9 12 17 5 12 14 12 12 13 14 17 19 20 19 17 17 15 17 16 17 15 14 14 15 13 13 12 12 11 9 8 10 8 10 4 4 2 5 2 3 3 4 4 5 5 6 5 6 5 7 9 11 16 17 19 21 22 22 22
24 23 24 24 24 24 25 25 25 26 26 26 26 26 26 26 24 24 23 22 21 20 18 15 13 11 9 9 8 9 13 16 19 14 14 15 15 15 15 17 20 18 19 19 17 17 16 18 18 15 14 13 10 14 13 14 14 13 13 10 8 5 7 7 6 7 7 7 6 5 6 6 5 3 6 7 7 7 9 8 14 17 18 17 19 20 21 21
23 24 24 24 25 25 27 26 28 29 27 26 26 26 26 25 24 24 23 22 21 18 16 13 10 11 9 7 9 11 16 15 15 18 17 17 14 16 17 13 18 18 17 18 18 17 16 16 18 16 12 15 13 13 14 12 11 14 14 11 10 10 8 8 9 10 10 7 6 7 8 6 5 3 6 5 10 9 9 10 15 17 18 18 19 19 20 20
24 24 24 25 25 26 27 28 28 27 27 27 27 26 25 25 24 24 24 22 19 17 14 10 10 11 9 8 9 13 8 7 1 10 18 14 14 16 19 14 19 19 18 19 17 18 18 13 17 16 16 13 13 14 11 15 8 10 15 15 13 10 10 9 11 11 11 11 9 10 7 8 8 6 7 8 10 10 11 12 15 17 19 18 17 18 19 21
24 25 25 25 26 27 27 27 28 27 27 28 28 26 24 24 24 24 22 20 17 16 13 11 10 12 11 11 12 13 2 6 5 5 10 11 14 17 17 15 19 18 19 18 19 19 17 16 15 10 12 11 9 14 12 11 14 6 5 10 13 13 12 12 11 13 10 10 11 10 10 8 8 8 4 11 11 13 11 14 15 16 16 16 19 18 18 18
25 25 25 26 27 27 28 28 28 28 29 29 28 25 23 24 24 23 20 17 17 12 9 10 14 9 10 11 14 14 5 6 1 6 8 9 13 18 18 17 18 18 19 18 19 18 17 17 14 15 10 9 12 10 14 13 13 15 11 12 12 13 14 15 15 13 12 10 9 8 11 12 10 11 8 7 13 14 13 14 16 15 15 17 17 17 17 16
25 25 26 26 27 28 28 29 28 29 29 29 27 24 23 22 23 21 17 15 8 6 5 10 13 9 9 12 18 19 18 7 3 7 6 7 10 13 14 16 18 18 18 17 16 17 17 16 16 17 16 10 12 9 5 11 16 11 12 11 12 13 14 16 14 15 15 12 12 9 9 8 12 12 11 10 12 13 13 14 13 12 14 15 17 17 17 17
25 26 26 27 27 28 28 28 30 30 29 28 27 23 21 21 21 17 15 11 9 6 6 12 11 8 10 12 5 6 15 16 11 7 10 8 10 13 15 15 15 15 15 16 15 13 16 15 16 16 13 15 9 9 7 8 10 13 12 11 11 11 12 15 15 16 17 12 13 10 9 7 7 13 12 11 11 12 13 14 13 15 15 16 16 17 17 19
25 26 26 27 28 28 28 28 29 29 29 28 26 23 21 20 17 15 12 14 5 3 8 10 9 8 9 11 15 21 7 6 16 13 11 11 11 11 13 13 15 16 14 15 12 11 12 15 16 15 14 14 15 13 10 11 10 11 11 13 12 13 10 13 17 19 16 13 15 13 10 8 6 12 12 12 11 11 12 14 17 15 14 14 12 14 17 18
24 25 26 26 28 29 28 28 28 29 29 27 27 25 22 15 13 13 11 7 6 9 9 9 9 11 11 13 2 10 11 16 16 15 12 11 12 12 13 14 13 14 14 13 10 8 10 14 15 13 13 13 16 12 8 9 12 12 13 12 15 14 13 12 15 14 18 14 16 16 9 9 9 11 11 13 11 11 11 13 15 16 16 14 10 11 14 16
24 24 24 26 28 28 30 28 29 29 28 28 26 23 17 11 10 5 3 7 7 8 7 4 7 8 7 3 4 8 12 15 12 15 14 14 12 9 13 14 13 15 14 9 10 9 13 14 10 12 14 13 13 13 11 13 14 13 13 13 13 15 14 12 12 17 16 15 13 17 13 9 6 9 11 13 11 10 9 12 14 14 13 15 14 14 13 16
25 24 24 25 27 29 29 30 28 30 30 30 28 25 17 9 6 7 7 8 5 7 7 8 8 6 16 18 10 10 13 12 14 13 17 14 15 10 13 13 12 13 13 13 12 13 13 12 11 13 12 15 15 16 16 17 15 14 14 14 14 14 16 16 13 14 15 17 16 14 15 12 10 12 12 12 12 11 9 10 14 14 14 15 14 14 17 13
27 26 25 25 25 28 28 28 29 30 29 26 28 26 5 5 5 8 7 5 6 6 7 9 10 11 8 2 18 4 5 10 13 14 17 18 16 10 12 11 13 16 14 14 12 17 12 11 12 13 17 18 19 19 18 16 15 16 16 14 14 13 14 13 16 13 17 17 18 18 12 13 15 13 13 13 12 11 10 10 12 14 14 15 16 15 12 15
27 26 25 25 26 27 28 26 29 30 28 21 17 11 6 3 4 7 4 7 12 13 17 7 14 17 17 8 8 5 7 3 13 15 15 17 15 15 15 14 15 15 15 14 15 18 13 16 17 19 18 19 21 20 19 20 17 15 15 14 16 16 15 11 9 12 11 13 16 16 18 15 14 16 17 15 14 12 12 12 11 14 14 12 14 15 15 14
27 26 26 23 26 27 27 26 29 28 30 17 18 11 8 11 11 8 18 18 17 21 22 23 20 19 17 12 6 9 8 12 12 14 17 16 17 16 16 16 16 16 16 17 14 14 14 17 19 20 20 19 20 20 19 19 20 18 15 17 15 17 15 14 16 15 12 11 11 13 15 17 15 14 14 14 12 13 13 12 13 14 15 16 18 15 15 15
27 27 27 26 24 26 27 29 29 28 27 15 7 10 8 9 6 9 11 15 17 15 19 22 20 21 20 22 15 6 8 9 15 16 15 20 19 18 17 18 19 17 17 17 14 15 17 19 19 20 19 18 17 20 20 20 20 20 15 11 14 13 13 14 17 18 14 11 10 13 16 15 16 16 13 12 14 14 14 12 12 12 13 13 14 15 14 14
28 27 27 27 26 26 28 29 30 24 12 9 8 11 10 10 8 6 10 14 21 18 17 21 22 24 21 17 17 12 12 15 15 17 19 19 20 21 18 19 19 17 18 20 17 16 16 18 21 19 18 19 19 19 21 21 18 16 16 14 14 12 12 13 14 14 15 9 9 14 17 13 14 14 15 16 18 15 15 15 14 13 14 13 14 15 14 19
28 28 26 28 27 27 27 28 28 17 6 9 8 11 11 10 9 11 11 10 14 21 18 21 21 19 21 19 14 20 17 13 15 20 19 20 20 21 18 22 21 19 19 24 24 18 18 10 18 20 19 20 21 19 18 17 16 18 18 16 15 15 16 15 12 19 17 13 13 14 14 13 14 16 16 16 16 13 15 16 15 13 16 15 14 17 17 18
28 27 26 27 27 27 30 28 10 11 14 11 4 13 12 11 9 10 11 10 12 14 14 15 13 16 15 14 12 18 18 14 17 13 18 22 22 19 19 16 16 19 20 23 24 20 19 15 14 21 20 20 20 18 19 16 15 16 22 20 17 18 17 15 16 14 13 14 13 15 12 14 14 16 16 13 15 18 15 17 16 14 13 20 20 19 19 18
27 28 26 25 26 26 33 14 7 13 15 5 12 13 12 11 9 8 8 7 11 7 11 10 12 10 11 15 14 14 14 19 18 15 16 19 19 18 13 15 14 19 24 22 20 14 15 16 14 19 22 21 21 18 19 19 14 15 15 21 20 18 17 17 17 16 13 11 12 17 16 13 13 18 18 18 18 18 18 18 17 15 13 15 17 17 19 19
24 26 26 26 24 23 14 7 13 14 9 9 13 13 11 10 7 10 7 7 11 8 11 9 11 6 7 14 16 15 13 15 15 18 19 21 22 18 19 17 15 13 14 12 11 16 16 19 18 15 20 20 18 18 18 19 15 14 11 17 21 22 21 18 17 15 11 11 13 15 15 14 14 14 16 18 20 22 17 17 16 14 15 16 15 18 17 19
24 23 24 24 25 19 9 11 12 10 9 11 14 13 13 9 8 8 6 6 5 11 8 6 3 5 6 14 18 18 7 6 19 23 21 20 22 20 20 21 18 19 18 16 19 12 20 19 21 20 18 17 18 17 17 18 16 12 12 13 15 18 21 21 16 14 11 10 13 15 18 14 12 10 11 14 18 20 16 15 15 16 16 16 15 16 18 20
24 23 23 25 24 30 15 9 8 10 10 12 14 13 10 11 9 6 7 8 5 3 4 7 1 8 4 14 17 19 15 8 12 18 22 19 24 15 18 22 18 19 22 21 16 13 14 19 20 20 16 16 17 18 17 18 16 15 13 12 13 10 13 18 17 15 14 13 16 15 17 14 13 12 14 16 17 16 15 15 17 16 14 13 14 16 17 19
25 23 24 24 21 11 3 8 9 8 12 13 14 14 16 11 7 7 8 10 5 3 1 6 8 9 10 13 13 18 21 11 7 10 24 20 22 22 15 16 18 18 19 22 21 17 13 16 19 16 17 15 15 15 16 18 18 12 17 12 7 7 9 10 12 13 13 18 18 19 20 18 14 13 14 16 16 14 11 14 15 15 15 16 15 17 16 16
26 25 23 21 10 9 9 7 8 14 13 12 14 17 12 7 8 9 11 4 8 6 4 9 6 7 13 13 10 16 19 14 12 11 20 21 20 22 15 15 17 15 15 18 20 21 19 15 16 14 15 13 14 16 17 16 17 16 13 12 9 10 9 9 10 11 14 17 16 19 20 20 18 13 12 13 15 20 19 17 18 17 18 17 16 17 16 17
28 27 27 16 11 9 8 10 13 12 12 14 16 12 8 9 10 12 9 8 12 9 10 7 7 7 6 9 12 14 16 16 12 16 18 19 19 20 21 18 17 17 18 19 18 19 21 18 14 17 16 20 17 14 14 15 16 16 13 13 13 10 10 12 11 15 18 16 10 17 18 16 23 14 10 14 16 15 16 17 17 21 21 20 20 20 16 16
29 28 26 16 14 8 9 10 11 11 13 15 12 8 9 8 12 10 14 14 3 11 9 13 13 12 11 12 12 13 17 18 16 16 19 20 19 21 25 22 21 19 15 16 15 18 17 19 19 17 15 18 17 16 13 15 16 17 16 14 14 13 13 12 13 11 11 14 15 13 19 19 15 13 20 18 14 16 15 14 17 20 22 23 21 18 15 15
29 29 14 8 7 7 8 10 10 13 13 11 10 9 10 11 12 13 17 4 12 13 14 14 17 15 13 10 11 12 12 16 18 15 20 17 21 18 20 27 23 23 16 12 17 18 15 18 21 20 15 19 21 17 14 11 15 16 15 14 13 11 10 12 11 15 14 8 14 19 12 13 17 10 12 19 22 15 13 17 18 17 17 20 19 14 13 16
32 28 16 8 6 4 10 12 11 12 11 10 9 10 11 11 9 10 13 10 11 13 15 20 16 15 13 13 16 16 13 11 20 17 17 18 19 18 20 21 28 21 18 14 15 13 23 16 16 24 13 20 22 21 17 15 13 14 15 12 14 17 9 10 8 10 10 11 11 15 14 9 11 6 3 8 15 21 15 12 13 15 13 17 18 16 15 16
24 9 9 2 6 8 12 9 10 11 10 10 9 9 11 9 9 3 6 14 12 15 20 19 14 13 12 10 12 12 6 9 15 17 16 19 18 19 19 16 22 26 17 18 11 14 15 16 16 24 23 20 23 21 20 16 13 15 15 18 17 13 13 9 8 10 10 10 11 8 12 13 6 10 12 10 10 16 20 18 15 13 16 15 18 18 18 17
12 13 5 4 6 12 11 11 9 10 9 10 10 10 10 10 10 13 9 14 15 16 14 11 7 10 7 10 11 12 9 13 10 14 13 18 16 20 19 18 21 25 25 18 13 11 12 12 17 19 28 19 20 22 22 20 13 11 17 16 13 13 12 10 10 8 9 9 8 11 13 12 11 9 9 12 14 14 18 21 20 17 17 16 16 19 17 18
14 11 12 4 11 12 11 10 11 9 9 9 11 13 11 14 8 14 11 14 13 12 12 11 11 14 12 10 4 5 6 6 8 12 12 16 7 1 14 17 17 13 28 24 15 11 12 11 16 21 23 19 19 20 21 21 21 14 13 13 15 14 15 12 8 13 11 12 9 10 12 11 12 10 9 17 16 15 15 17 19 20 20 19 18 20 22 21
13 12 3 10 12 13 10 10 10 9 9 9 8 12 3 12 11 11 14 13 11 13 12 12 13 11 15 14 9 11 4 7 4 8 12 11 12 6 6 8 6 3 4 8 12 10 12 12 10 20 22 20 17 18 20 19 22 21 12 16 15 11 13 13 12 7 8 9 9 11 13 10 11 11 12 7 14 15 14 14 16 18 18 16 16 17 20 19
9 9 5 11 13 12 11 11 8 7 6 9 8 9 12 12 12 14 13 13 10 9 10 15 14 14 16 15 15 11 7 12 11 11 14 4 3 13 10 7 7 5 5 7 12 18 11 13 11 15 22 19 17 16 20 20 21 20 17 14 15 12 9 10 10 13 10 9 8 6 9 10 11 13 14 10 8 11 15 16 13 13 15 17 16 15 16 17
9 10 5 14 13 12 11 8 4 4 5 5 8 10 12 11 13 12 14 15 12 9 12 14 14 13 14 14 13 13 9 12 12 10 11 5 8 4 11 11 8 9 6 8 11 15 8 11 14 13 15 19 18 18 21 22 21 19 17 16 15 16 15 16 14 11 13 9 6 6 7 0 9 5 3 7 8 8 9 12 14 14 15 15 15 16 16 15
9 8 9 13 12 14 11 6 3 3 4 6 7 8 9 8 10 11 11 10 12 11 10 14 16 15 14 14 12 13 12 14 13 10 12 6 12 8 8 11 10 8 8 9 14 15 8 5 14 13 15 17 18 20 21 21 22 21 19 16 16 14 13 12 10 11 11 12 9 8 6 1 9 6 5 6 8 9 9 8 9 12 13 14 14 16 15 15
8 9 7 7 12 13 10 4 5 5 5 6 8 7 7 7 9 8 10 8 9 7 9 10 13 14 14 15 15 14 14 12 14 12 11 3 6 5 9 12 13 11 4 7 14 16 7 8 8 13 13 14 18 18 20 20 21 21 20 19 17 17 17 13 10 8 10 11 11 8 8 3 11 9 9 7 5 1 4 9 10 10 10 10 11 13 16 15
10 9 7 8 11 11 7 7 8 7 7 8 9 10 6 8 9 10 10 11 8 8 9 9 11 9 14 16 15 13 10 11 12 17 11 5 3 7 7 11 13 7 5 5 4 4 11 12 11 9 10 11 14 15 16 19 18 16 16 19 20 18 18 16 10 8 10 12 12 10 9 9 10 6 4 6 8 9 10 9 11 10 10 10 11 6 9 9
9 7 4 8 8 8 6 6 7 8 9 10 12 11 9 7 5 8 11 10 8 7 10 8 9 12 11 13 15 15 14 15 13 11 9 12 5 8 5 7 10 8 8 9 11 9 7 12 14 14 15 16 16 17 18 19 21 15 18 21 24 24 22 16 15 11 8 8 12 9 8 7 11 5 6 6 6 5 6 9 10 9 10 8 10 9 6 7
10 10 8 8 8 5 3 4 5 8 8 9 10 8 9 10 7 8 7 8 6 10 9 10 8 10 9 13 13 12 14 15 15 8 9 8 9 4 5 8 6 9 12 16 14 8 7 8 15 15 13 13 5 2 6 16 14 19 21 23 24 24 22 18 12 12 12 9 9 8 7 11 10 11 6 6 6 8 6 4 11 10 8 10 10 5 4 5
9 7 10 10 9 4 9 7 7 7 8 9 8 7 10 10 9 7 7 8 6 9 8 5 7 8 8 11 11 13 14 16 19 15 11 12 8 13 8 8 8 7 15 13 4 6 5 10 13 21 23 4 7 5 10 9 17 21 20 23 22 25 23 22 17 14 9 9 10 9 11 8 8 7 7 8 10 10 11 9 11 9 8 8 9 5 5 6
6 7 8 5 8 9 11 7 9 10 11 11 8 8 9 9 9 9 7 5 11 3 6 4 8 7 9 9 12 9 10 15 11 12 17 13 13 10 10 8 5 7 10 7 5 5 6 11 13 12 23 16 7 6 8 6 13 13 23 22 24 24 26 25 21 17 14 12 8 10 11 12 4 8 9 11 11 8 7 10 11 10 8 11 8 3 5 9
7 8 8 8 10 9 10 13 13 11 12 10 7 8 9 8 10 8 8 9 9 7 10 7 6 8 10 9 8 9 10 9 6 14 10 12 12 12 7 4 5 2 6 6 5 4 5 7 10 18 16 16 10 11 8 9 7 8 11 22 21 22 24 25 21 19 18 12 11 5 13 16 13 6 10 8 4 4 7 1 7 7 8 5 5 3 4 11
7 8 5 8 10 11 11 10 9 10 8 6 7 4 5 8 10 9 7 9 10 3 1 7 10 9 9 9 8 9 10 11 10 10 13 14 15 6 11 10 12 15 9 7 5 3 6 6 10 5 8 16 13 8 8 9 5 8 10 14 22 22 19 21 21 20 18 16 14 13 8 8 10 12 8 9 9 6 4 5 5 5 5 4 3 4 3 5
8 7 7 9 11 8 9 8 9 9 7 6 7 4 8 8 10 9 10 10 9 7 7 11 11 13 8 7 11 11 10 10 10 11 11 13 12 12 8 8 13 12 9 7 4 7 6 5 4 7 10 11 12 14 12 10 9 12 11 10 8 16 22 20 18 17 18 17 16 15 13 10 6 6 6 6 4 5 6 6 7 6 5 6 6 6 5 5
10 8 6 6 10 11 11 9 10 8 7 4 5 9 8 11 10 9 9 5 5 6 9 10 12 11 10 7 9 13 12 11 11 12 11 12 14 14 12 12 12 12 8 8 6 8 5 6 5 8 9 9 13 13 12 9 9 12 17 14 13 12 9 7 9 8 11 9 12 12 9 5 4 6 8 8 8 7 8 8 5 7 7 7 7 7 7 8
Wind_Direction
357 355 353 350 348 347 344 342 338 335 331 329 327 325 323 322 319 321 322 321 319 317 315 314 312 311 310 309 307 307 310 290 294 268 236 245 252 206 166 142 165 180 194 200 196 182 187 196 198 193 200 210 217 233 217 209 245 137 242 247 277 19 313 278 50 125 136 120 132 148 131 118 117 135 99 146 134 108 146 116 126 93 40 97 122 139 143 149
356 354 352 349 347 345 342 339 335 332 329 326 326 323 321 320 322 322 320 318 317 316 313 311 309 309 309 306 305 306 303 288 276 264 245 253 187 187 172 164 164 185 199 207 196 187 188 191 195 188 203 212 207 233 195 211 213 221 246 249 235 185 217 265 54 38 23 78 79 126 124 168 102 152 129 171 127 130 150 127 143 119 99 106 130 136 142 154
356 354 351 349 346 344 340 337 333 330 327 325 323 320 320 320 321 319 317 316 316 314 310 309 307 304 304 302 301 300 289 288 271 259 258 234 213 179 174 166 174 180 198 204 193 195 198 188 190 188 208 219 194 225 189 213 180 217 249 285 268 152 242 226 61 87 57 357 93 123 137 123 130 160 148 174 134 133 151 144 152 135 130 132 134 148 147 159
355 353 350 348 344 341 338 334 331 328 325 323 320 319 321 319 319 318 314 314 312 311 309 305 302 301 298 300 302 300 286 281 273 258 313 84 196 173 170 168 177 185 199 215 193 202 201 195 194 196 204 225 189 233 188 206 203 199 236 238 116 243 255 129 168 100 75 19 69 66 91 148 185 130 207 129 153 158 162 146 162 146 142 140 149 147 151 161
353 352 349 345 342 339 335 332 330 327 323 320 318 320 319 318 319 316 314 312 310 306 303 303 297 294 295 294 295 284 285 287 273 74 46 104 140 153 163 173 182 188 203 208 198 207 203 200 195 201 220 215 219 206 220 215 214 255 240 265 161 256 204 111 123 80 33 73 298 115 207 98 113 162 169 193 253 120 157 146 151 150 146 147 156 157 162 162
352 350 347 343 339 337 334 330 327 325 321 320 321 321 318 319 315 314 310 306 303 300 300 298 293 286 289 291 286 267 265 238 66 80 93 102 136 156 171 178 186 197 202 205 200 199 203 202 197 204 214 228 217 213 206 230 193 246 236 231 238 223 284 116 9 91 257 326 12 246 65 139 176 155 177 176 173 116 52 133 146 142 153 156 157 159 167 163
350 348 345 341 338 334 331 328 326 323 324 324 321 319 318 317 314 309 305 302 300 300 299 292 286 282 274 288 267 258 235 266 298 133 129 138 153 164 175 176 189 204 205 205 199 200 202 203 201 204 215 222 228 217 219 220 218 240 261 218 226 250 247 255 269 175 240 251 268 298 52 249 155 217 129 195 180 113 121 124 135 141 148 156 160 165 167 168
348 346 342 339 335 332 330 326 324 325 326 321 319 318 317 314 311 308 304 300 301 299 296 287 278 266 273 253 243 223 228 245 261 159 142 139 162 173 170 182 187 203 210 208 197 204 197 207 200 208 222 218 215 222 215 220 220 229 243 260 269 249 240 241 233 232 233 251 256 259 246 237 198 229 174 178 170 171 139 144 133 143 150 162 161 170 169 169
346 343 341 336 333 332 328 325 329 329 325 319 317 317 316 313 309 306 303 303 300 297 289 282 262 250 240 269 252 262 245 238 250 139 151 154 166 165 173 177 191 201 211 209 204 207 203 206 209 212 215 223 229 231 218 227 219 223 240 248 247 243 242 225 223 227 236 244 254 246 233 232 226 211 237 171 167 175 141 161 147 146 156 165 169 171 171 172
346 342 339 336 333 330 328 329 329 325 322 319 317 316 315 311 308 306 306 303 299 288 285 273 241 223 211 217 228 248 268 273 218 196 160 174 169 170 184 187 181 202 210 209 204 208 207 204 214 208 243 241 239 238 224 221 240 217 226 240 253 250 241 217 233 229 231 239 233 236 232 236 214 189 199 187 167 170 155 156 155 159 162 164 169 173 172 177
345 342 338 336 333 330 329 327 326 324 322 321 316 315 314 313 309 306 307 302 297 289 279 241 215 201 211 223 238 238 101 250 181 187 220 222 205 184 195 200 187 196 210 208 212 208 206 220 205 221 228 247 239 240 236 224 228 218 242 247 240 250 253 258 238 241 236 232 235 240 246 242 245 199 236 173 177 164 167 162 159 166 166 166 166 172 171 179
343 340 338 335 332 329 328 327 326 324 322 319 315 313 315 312 308 308 303 304 295 295 257 214 192 208 232 231 234 231 95 250 230 244 191 205 211 199 203 203 192 202 204 209 211 205 210 215 212 217 222 207 250 246 228 239 228 243 238 235 229 231 238 229 235 228 229 237 232 230 246 230 214 224 195 168 162 162 175 170 167 171 170 167 169 166 172 178
342 339 337 334 331 329 329 327 326 324 321 317 313 314 312 310 308 305 300 298 317 313 219 192 192 220 226 237 242 240 255 255 261 281 244 209 205 200 204 207 199 206 207 215 207 209 209 214 218 221 232 220 223 223 18 230 226 235 238 248 250 241 235 225 223 225 215 218 222 216 239 232 217 212 187 171 166 165 180 169 162 189 173 176 171 168 171 177
340 338 336 334 330 329 329 327 326 322 318 316 314 311 309 309 304 299 293 294 310 276 190 179 201 210 232 246 259 182 232 242 252 242 219 193 192 190 199 198 201 208 211 221 215 207 213 213 220 232 230 237 235 225 221 242 220 227 228 237 248 243 234 215 216 207 218 208 219 212 240 235 200 179 178 177 170 177 181 176 160 191 180 173 178 173 173 176
338 336 335 333 331 329 329 329 325 320 317 315 311 311 307 307 298 292 285 285 257 186 163 176 213 220 224 262 243 248 112 254 230 215 222 189 194 172 194 192 199 203 209 220 225 218 216 211 220 221 224 223 259 254 224 231 216 219 227 225 227 237 237 227 201 203 211 200 208 206 234 233 238 160 169 162 176 187 190 173 166 206 183 171 176 185 178 176
336 334 334 333 331 329 330 329 325 320 318 314 313 309 304 291 284 274 273 328 146 162 168 185 202 233 296 279 270 98 181 214 215 211 214 214 191 194 187 194 195 199 203 210 226 218 219 211 217 217 222 212 229 233 242 222 222 212 228 228 221 220 235 230 190 207 210 215 189 216 228 218 216 153 166 160 188 183 198 183 182 185 182 160 185 186 189 177
334 334 333 332 332 329 330 329 326 320 320 314 313 305 300 289 254 283 230 184 172 189 207 231 180 206 245 62 114 212 202 207 214 200 210 216 209 192 173 180 186 190 194 191 216 215 201 217 202 223 224 227 209 221 227 222 214 214 208 233 230 222 214 231 181 196 202 221 202 196 232 230 162 160 173 164 175 187 203 193 185 185 186 160 176 191 200 184
334 334 334 333 331 331 329 329 326 321 320 317 310 300 287 273 259 265 205 217 210 212 225 253 271 229 243 248 244 228 208 196 201 201 201 201 215 190 178 178 177 180 176 178 206 209 187 209 199 218 204 219 209 207 217 214 209 206 205 214 228 236 219 210 219 172 208 197 232 203 207 221 221 177 173 181 199 189 197 202 186 186 183 159 178 205 188 190
334 333 332 333 332 330 329 327 325 322 319 316 300 284 264 176 239 234 247 196 209 191 212 187 196 190 32 210 213 333 201 189 179 197 190 196 201 203 180 184 180 173 185 190 179 203 174 209 202 218 212 204 211 208 215 223 216 217 210 214 225 222 229 217 212 201 195 199 212 230 230 214 210 227 181 183 194 202 199 201 191 183 189 178 181 194 181 197
333 331 333 331 333 330 328 326 324 320 321 323 317 306 172 287 237 187 198 257 246 252 289 306 207 253 295 281 184 175 62 126 181 195 191 191 189 195 190 188 179 189 192 198 168 205 171 205 203 210 211 207 211 216 217 225 241 230 227 225 219 227 228 226 224 222 184 228 213 215 224 239 220 207 217 187 185 206 211 198 195 184 184 173 192 186 197 196
331 330 331 330 332 331 326 326 323 319 318 313 303 357 23 358 343 332 337 297 270 258 259 266 255 250 252 262 261 189 193 191 219 188 201 176 192 187 192 191 183 195 199 199 185 190 197 212 216 211 214 213 209 215 220 225 231 238 232 226 226 221 231 211 205 218 179 209 221 229 237 225 229 231 219 167 186 203 210 202 201 195 186 180 186 190 192 192
330 330 329 331 332 331 326 326 320 317 314 294 328 13 22 19 342 313 313 300 293 272 262 255 257 252 249 256 263 264 262 221 195 198 193 180 185 196 179 200 189 198 189 199 190 188 206 217 218 212 211 220 216 210 221 226 224 230 238 236 241 226 229 228 218 205 214 195 236 232 231 235 234 233 232 235 193 199 206 209 205 195 192 176 190 180 184 211
330 329 327 328 331 330 326 322 319 309 299 315 11 9 15 345 324 320 289 280 279 267 247 244 241 238 242 235 235 230 221 224 197 191 184 185 183 206 180 197 196 199 192 199 201 193 208 222 217 212 209 214 218 216 212 220 228 228 221 228 225 228 217 213 222 234 209 207 227 228 240 239 238 237 238 221 232 193 193 209 207 200 180 188 180 184 187 208
329 327 327 326 329 329 322 320 308 293 318 339 312 22 348 337 336 321 299 278 294 288 245 234 222 227 228 217 207 219 219 215 222 188 177 187 195 195 204 197 199 201 202 199 209 205 211 211 204 214 210 208 218 214 213 213 220 224 231 221 230 224 219 238 207 207 229 193 228 252 247 243 235 231 220 232 234 232 179 205 213 206 175 182 182 191 189 204
327 326 325 325 328 327 321 318 303 358 316 279 355 358 343 335 336 343 302 285 239 248 241 239 216 220 224 212 201 206 212 233 227 205 177 192 190 187 212 193 211 206 209 200 211 221 219 217 191 207 210 208 215 216 211 213 220 219 225 233 230 233 239 223 245 249 217 225 207 223 239 241 235 239 244 233 218 222 203 197 209 214 206 170 179 191 193 194
326 323 323 324 324 331 313 295 17 336 311 6 2 341 331 330 342 328 301 275 274 261 148 207 157 207 191 198 187 203 203 226 210 219 183 195 201 199 192 209 205 209 207 205 209 223 228 207 213 199 207 208 211 220 210 213 225 222 214 220 234 242 241 245 236 234 223 223 212 210 240 235 225 233 227 228 240 227 200 196 206 211 211 194 190 182 179 189
323 319 321 322 322 332 331 6 328 307 320 357 344 330 327 324 348 313 271 242 264 191 168 84 191 105 224 177 175 171 200 220 198 214 198 183 203 195 212 203 195 232 206 210 204 218 219 215 208 203 205 210 210 214 215 208 220 227 216 206 217 229 239 240 241 240 246 242 264 238 208 239 245 231 227 221 219 231 207 184 205 207 205 209 191 188 187 182
322 320 319 320 318 320 280 294 303 322 350 334 327 326 320 323 307 267 256 297 257 127 130 170 11 122 247 155 181 196 198 84 176 201 208 176 206 194 221 208 206 205 208 201 221 200 208 212 209 196 206 210 213 213 207 203 216 229 219 222 214 218 227 234 237 242 241 245 237 235 245 247 243 245 251 236 224 224 196 184 195 212 202 211 200 192 188 189
321 320 319 319 321 299 280 255 299 307 327 331 320 321 318 306 285 293 275 261 82 122 15 136 225 192 172 162 200 213 218 209 208 178 191 186 202 209 206 221 216 209 216 215 224 205 205 215 210 210 201 215 214 209 206 203 217 218 238 216 225 219 225 223 229 235 237 235 237 233 228 243 240 228 231 237 248 220 198 202 208 200 203 203 224 204 189 184
320 319 319 321 318 285 244 252 259 353 328 331 318 311 304 288 259 234 220 250 231 189 113 98 207 162 180 179 202 206 225 213 264 161 181 193 186 216 224 219 227 216 218 220 228 230 212 198 220 217 209 214 212 208 206 210 220 210 217 226 207 217 220 226 234 230 235 238 235 233 234 238 250 221 222 220 218 228 206 202 205 197 201 196 216 216 192 188
321 321 318 322 305 329 299 281 354 342 324 319 313 306 290 262 246 251 239 272 321 70 225 156 146 182 182 206 199 199 221 218 181 182 178 191 188 202 209 209 224 233 222 220 220 225 233 194 204 219 207 208 218 209 205 212 207 210 207 206 191 207 218 224 216 223 235 239 231 228 233 233 248 233 230 235 226 212 218 207 187 195 199 196 204 220 197 188
321 319 317 318 289 298 297 322 334 318 317 313 310 298 286 256 208 233 233 96 246 33 6 13 7 337 267 226 250 187 202 215 206 190 188 187 187 191 200 206 185 204 216 207 211 207 222 220 200 209 193 207 203 225 190 200 200 203 207 201 203 192 193 206 203 210 220 235 220 223 224 234 237 240 243 228 233 240 214 215 198 198 196 192 197 214 194 188
320 314 312 290 265 250 289 315 304 312 312 307 305 290 258 257 247 222 245 281 46 358 4 309 348 314 296 287 249 249 199 209 197 200 200 190 203 199 203 210 193 210 207 198 210 200 213 223 205 197 193 198 210 206 187 192 197 197 204 195 196 198 195 208 207 223 236 226 230 232 210 235 251 236 224 242 240 229 221 204 208 210 202 184 192 207 199 192
317 312 307 287 291 277 287 300 316 312 311 310 288 279 250 248 253 272 281 309 357 360 322 333 324 303 275 254 246 219 211 206 201 198 197 194 203 200 201 211 212 202 233 194 210 201 199 197 217 189 204 183 208 215 202 195 189 199 203 202 202 216 201 204 207 210 221 235 204 217 234 227 227 228 222 220 226 235 226 213 200 209 213 180 178 191 219 201
313 302 278 250 260 311 333 319 312 314 304 298 285 263 266 253 263 263 253 0 336 348 327 325 303 291 275 261 254 236 226 198 204 198 201 205 200 211 197 201 209 214 207 232 198 214 213 220 205 202 199 185 200 204 215 195 194 197 200 206 210 216 219 231 205 226 219 218 227 196 219 222 233 256 285 237 212 214 217 225 212 193 207 182 171 181 211 216
303 316 308 348 327 356 327 326 315 310 302 290 280 265 252 267 263 244 4 354 332 337 331 314 285 268 260 261 216 244 184 287 190 208 203 212 208 211 205 201 204 208 205 217 190 210 208 218 202 191 201 197 196 195 208 203 201 182 197 207 212 207 228 238 249 239 244 243 236 201 205 217 239 226 207 212 231 209 207 205 207 196 202 199 168 180 196 216
324 311 310 342 316 352 330 324 322 303 292 283 276 267 271 277 297 323 14 343 336 327 320 323 276 328 266 232 226 185 204 219 245 210 210 199 218 213 213 206 202 206 221 215 222 224 222 214 206 188 192 198 192 197 205 206 219 174 205 205 206 222 237 237 237 210 225 235 227 219 213 203 209 227 190 197 209 217 203 207 207 194 192 196 185 180 187 210
313 301 281 258 356 340 339 325 316 298 286 283 270 275 291 274 310 338 341 334 331 323 311 293 304 295 295 282 253 193 151 240 190 213 233 185 214 154 224 212 184 226 213 219 244 206 221 228 200 193 188 185 184 193 207 212 215 220 204 185 204 187 210 212 240 232 214 216 233 224 227 228 205 216 212 208 203 209 205 198 204 203 205 206 203 188 186 198
289 295 347 29 349 344 337 324 295 296 284 277 286 267 317 344 345 333 339 321 318 313 286 288 297 298 294 296 302 299 282 230 287 232 231 187 206 40 35 350 154 59 357 244 231 246 214 242 194 180 182 176 186 190 204 198 200 227 215 201 208 224 210 203 210 241 238 235 215 223 223 235 215 228 215 202 195 198 202 195 205 201 194 196 195 192 187 193
324 315 37 18 0 339 330 294 293 275 294 301 309 304 348 328 349 343 318 319 312 315 297 297 296 298 294 293 310 291 288 303 284 293 247 154 204 55 40 353 358 329 301 252 233 220 232 212 241 159 172 175 198 195 206 193 189 196 216 208 189 222 207 226 203 217 218 233 235 238 214 215 220 208 208 198 170 198 198 198 204 216 197 188 191 190 184 192
302 285 24 15 353 337 311 305 310 336 327 326 319 322 317 328 340 317 325 337 326 310 294 285 284 285 295 308 311 306 279 269 279 279 276 129 37 146 33 352 346 309 281 230 225 216 245 214 233 170 182 197 205 196 206 200 196 196 203 208 198 194 200 202 213 197 223 230 232 239 252 48 79 66 103 203 188 171 203 200 193 204 216 208 191 191 188 190
315 328 352 351 347 330 322 326 342 338 319 335 338 331 318 345 297 322 329 333 317 306 302 292 282 273 278 280 284 292 289 298 264 258 285 246 50 15 14 341 324 317 265 215 207 212 251 295 232 206 190 210 208 194 204 210 199 201 202 209 205 197 209 207 214 194 208 226 241 247 261 179 77 86 152 185 192 186 179 200 201 185 201 206 202 191 187 192
342 327 335 355 347 325 324 332 338 331 340 348 324 296 327 301 314 327 320 327 315 319 303 300 304 321 313 306 282 272 289 282 288 265 273 306 55 33 5 338 336 303 286 243 211 211 55 232 250 236 186 208 202 200 193 211 204 200 205 212 207 209 203 215 212 201 208 196 213 208 229 175 117 106 87 73 37 279 187 190 209 195 193 189 194 197 184 184
311 319 328 15 337 322 324 353 344 343 343 335 326 331 328 328 323 335 333 340 335 321 317 309 306 308 307 307 311 287 296 292 265 260 262 319 266 35 4 335 340 343 335 18 290 149 214 211 240 209 218 193 188 192 191 198 214 208 202 203 212 212 210 213 216 213 220 205 207 206 205 231 128 147 154 195 198 201 207 178 189 190 183 180 175 175 127 132
317 308 359 345 340 314 354 355 337 332 337 332 333 321 342 316 11 349 330 335 339 326 312 320 323 321 302 317 305 298 268 264 290 292 314 309 309 34 354 330 336 344 356 347 318 312 284 204 206 214 202 189 186 190 192 188 202 206 207 201 206 211 209 200 211 200 228 199 214 208 206 105 104 132 138 213 179 222 171 161 161 184 165 160 134 107 112 152
344 319 0 327 349 303 333 324 319 338 320 339 323 332 322 315 328 343 329 342 355 327 325 311 321 318 316 327 303 286 272 259 260 272 291 282 326 307 75 311 334 346 345 325 302 305 260 253 214 227 227 204 206 261 221 196 191 210 201 207 197 211 211 209 211 218 211 204 224 216 248 129 170 137 170 159 179 174 141 138 144 154 157 80 74 97 146 164
323 318 348 331 325 331 336 335 335 329 324 337 303 332 312 319 331 302 28 312 2 341 325 349 328 340 336 326 332 306 289 299 272 258 271 280 305 312 317 323 321 8 320 299 332 306 264 248 229 224 243 275 335 314 338 271 209 206 210 203 205 201 211 207 209 213 197 211 220 191 226 252 130 145 166 181 153 159 158 150 120 113 116 125 109 131 156 168
322 340 323 1 300 318 321 325 334 314 309 301 297 314 304 313 320 320 336 330 318 35 332 39 298 348 331 331 318 307 311 309 320 359 357 359 341 312 274 169 322 25 310 344 326 300 293 241 232 238 233 238 258 336 315 271 222 219 212 209 205 202 202 212 210 212 201 217 220 180 197 222 210 134 164 156 147 133 116 136 135 122 141 138 134 86 161 151
320 317 315 339 305 317 303 311 304 298 294 301 317 306 294 314 315 334 336 323 317 21 352 320 317 353 338 325 315 297 306 321 333 337 8 328 324 304 297 183 180 55 334 343 323 347 292 239 247 226 230 238 221 245 276 265 250 272 269 215 207 206 202 208 213 209 211 212 223 196 183 212 220 192 155 135 146 157 148 164 59 139 176 61 42 208 197 171
324 327 319 323 302 295 297 298 298 294 292 297 279 223 298 310 313 327 327 326 318 354 173 283 307 332 330 316 310 293 303 310 323 313 318 323 305 322 351 12 352 347 329 345 330 25 316 178 15 300 265 236 230 225 230 254 279 270 240 231 206 204 210 205 210 209 212 216 210 215 178 199 203 227 217 158 171 198 251 248 232 253 315 335 277 274 268 273
313 315 313 310 306 307 308 294 290 298 294 274 268 334 319 308 312 335 315 324 320 325 319 315 324 307 304 307 297 287 287 295 290 280 295 296 299 315 327 318 329 325 312 337 320 338 280 304 309 258 235 241 222 218 218 237 250 237 235 226 243 222 208 201 207 205 206 210 213 211 214 207 185 205 246 269 267 279 275 268 259 263 264 256 270 275 277 248
312 302 287 293 293 296 296 295 289 286 275 339 324 306 304 312 307 314 310 311 281 269 292 304 309 305 289 290 296 291 292 286 288 290 288 286 282 284 275 283 300 305 313 295 321 310 333 318 263 201 232 238 214 217 216 223 240 238 230 219 216 222 246 217 217 213 225 228 214 220 219 211 205 183 220 221 240 241 245 248 271 271 274 280 278 282 278 271